Regional Weather Roundup
Issued by NWS

Home | Current Version | Previous Version | Graphics & Text | Print | Product List | Glossary On
Versions: 1 2 3 4 5 6 7 8 9 10 11 12 13 14 15 16 17 18 19 20 21 22 23 24 25 26 27 28 29 30 31 32 33 34 35 36 37 38 39 40 41 42 43 44 45 46 47 48 49 50
000
ASUS43 KOAX 281702
RWRNE

WEATHER ROUNDUP FOR NEBRASKA
NATIONAL WEATHER SERVICE OMAHA NE
1200 PM CDT WED SEP 28 2016

NOTES: SATELLITE DATA IS BEING USED TO AUGMENT CLOUD COVER ABOVE
       12000 FEET.
       "FAIR" INDICATES FEW OR NO CLOUDS BELOW 12,000 FEET WITH NO
       SIGNIFICANT WEATHER AND/OR OBSTRUCTIONS TO VISIBILITY.

  * THESE STATIONS DO NOT REPORT WEATHER SUCH AS RAIN...SNOW OR FOG.

NEZ001>004-019>022-054>056-281800-
NEBRASKA PANHANDLE

CITY           SKY/WX    TMP DP  RH WIND       PRES   REMARKS
SCOTTSBLUFF    SUNNY     72  44  36 CALM      30.31S
ALLIANCE       SUNNY     74  41  30 NE6       30.28F
CHADRON        SUNNY     74  45  35 W3        30.27F
KIMBALL        SUNNY     73  42  33 E8        30.35F HAZE
SIDNEY         SUNNY     75  42  30 NE7       30.32R
$$

NEZ057>060-069>072-079>082-281800-
SOUTHWEST NEBRASKA

CITY           SKY/WX    TMP DP  RH WIND       PRES   REMARKS
NORTH PLATTE   SUNNY     73  44  35 E5        30.24S
IMPERIAL       SUNNY     73  40  30 NW7       30.26S
LEXINGTON      SUNNY     70  38  32 N8G16     30.23S
MCCOOK         SUNNY     70  43  37 CALM      30.24R
OGALLALA       SUNNY     78  40  25 NE9G16    30.26S
$$

NEZ005>010-023>029-035>040-094-281800-
NORTH CENTRAL NEBRASKA

CITY           SKY/WX    TMP DP  RH WIND       PRES   REMARKS
VALENTINE      SUNNY     68  39  34 CALM      30.26R
AINSWORTH      SUNNY     64  36  36 CALM      30.27R
BROKEN BOW     SUNNY     68  33  27 N13       30.24R
O`NEILL        SUNNY     59  43  55 NE10      30.26R
ORD            SUNNY     65  35  33 NE10      30.23R
THEDFORD       SUNNY     68  42  39 CALM      30.27R
$$

NEZ041-046>049-061>064-073>077-083>087-281800-
SOUTH CENTRAL NEBRASKA

CITY           SKY/WX    TMP DP  RH WIND       PRES   REMARKS
GRAND ISLAND   SUNNY     64  39  39 N14       30.23R
AURORA         SUNNY     63  43  48 N14       30.22R
HASTINGS       SUNNY     65  34  31 N16G24    30.23R
HEBRON         SUNNY     64  44  47 N10G18    30.19S
HOLDREGE       SUNNY     67  33  28 NE10G17   30.23R HAZE
KEARNEY *      SUNNY     66  34  30 N12G17    30.23R
YORK           SUNNY     59  45  58 N9G21     30.22R
$$

NEZ011>018-030>034-042>045-281800-
NORTHEAST NEBRASKA

CITY           SKY/WX    TMP DP  RH WIND       PRES   REMARKS
NORFOLK        SUNNY     59  43  55 N13       30.22S
ALBION         SUNNY     60  44  56 N9        30.24R
BLAIR          SUNNY     57  46  66 N13       30.19R
FREMONT        SUNNY     59  44  58 NE10      30.21R
TEKAMAH        MOSUNNY   59  45  59 N13       30.21R
WAYNE          SUNNY     58  46  62 N9G16     30.23S
$$

NEZ050>053-065>068-078-088>093-281800-
SOUTHEAST NEBRASKA

CITY           SKY/WX    TMP DP  RH WIND       PRES   REMARKS
LINCOLN        SUNNY     63  46  54 N12       30.21R
OMAHA EPPLEY   MOSUNNY   59  45  59 N15       30.19R
BEATRICE       SUNNY     62  46  54 N10G16    30.18R
FALLS CITY     SUNNY     61  46  57 N13G22    30.14R
NEBRASKA CITY  SUNNY     59  40  49 N9        30.17S
PLATTSMOUTH    MOSUNNY   59  43  55 NW9       30.18S
$$

NEZ044-045-051>053-067-281800-
OMAHA AREA

CITY           SKY/WX    TMP DP  RH WIND       PRES   REMARKS
OMAHA EPPLEY   MOSUNNY   59  45  59 N15       30.19R
BLAIR          SUNNY     57  46  66 N13       30.19R
FREMONT        SUNNY     59  44  58 NE10      30.21R
MILLARD        SUNNY     59  46  60 N9        30.19S
OFFUTT AFB     MOSUNNY   60  47  64 N10       30.17S
PLATTSMOUTH    MOSUNNY   59  43  55 NW9       30.18S
WAHOO          FAIR      60  44  54 MISG      30.20S
$$




USA.gov is the U.S. government's official web portal to all federal, state and local government web resources and services.